Retour au catalogue

STARLINK-38232

ActifCommunicationsSSO
NORAD 100260·PAYLOAD·🇺🇸 United States

Lancé Aug 8, 2026 depuis Vandenberg Space Force Base

Loading…

Prochains Passages (prochaines 24 heures)

TLE

FraisSource: Space-Track

Époque: Sep 14, 2026, 15:08 UTC

1 A0260U 26181Q   26257.63121265  .00162995  00000-0  10723-2 0  9991
2 A0260  97.2832 300.8919 0002002  77.3819 282.7670 15.75203053  7033

Suivez STARLINK-38232 en temps réel avec AllMySat

Download on the App Store